Flag for Germany Weather past 2 weeks in Höxter, North Rhine-Westphalia, Germany

Now
74 °F

Scattered clouds.


Feels Like: 75 °F
Forecast: 64 / 90 °F
Wind: 3 mph from East

Location: Bad Lippspringe

Current Time: Aug 30, 2015 at 10:31:38 AM

Latest Report: Aug 30, 2015 at 10:00 AM


Visibility: 16 mi

Pressure: 30.06 "Hg

Humidity: 73%

Dew point: 65 °F

Location of HöxterLocation

Historic Weather in Höxter — Graph

°F

Höxter temperature yesterday

Maximum temperature yesterday: 75 °F (at 5:00 PM)
Minimum temperature yesterday: 49 °F (at 6:00 AM)
Average temperature yesterday: 64 °F

Past Weeks' High & Low Weather Summary

 TemperatureHumidityPressure
High78 °F (Aug 26, 5:00 PM)100% (Aug 16, 10:00 PM)30.27 "Hg (Aug 16, 10:00 PM)
Low49 °F (Aug 29, 6:00 AM)34% (Aug 22, 3:00 PM)29.59 "Hg (Aug 24, 6:00 PM)
Average64 °F75%29.98 "Hg
* Reported Aug 15 9:00 AM — Aug 30 9:00 AM, Höxter, Weather by CustomWeather, © 2015

Note: Actual official high and low records may vary slightly from our data, if they occured in-between our weather recording intervals... More about our weather records

Advertising

Höxter weather history for previous 24 hours

 ConditionsComfort  
Time TempWeatherWind HumidityBarometerVisibility
9:00 AM
Sun, Aug 30
71 °FSunny.6 mph80%30.07 "Hg9 mi
8:00 AM70 °FPartly sunny.5 mph82%30.09 "Hg19 mi
7:00 AM70 °FSunny.1 mph81%30.06 "Hg19 mi
6:00 AM69 °FClear.1 mph84%30.06 "Hg19 mi
5:00 AM67 °FClear.2 mph88%30.06 "Hg22 mi
4:00 AM66 °FClear.1 mph91%30.08 "Hg13 mi
3:00 AM70 °FClear.1 mph82%30.09 "Hg22 mi
2:00 AM70 °FOvercast.1 mph82%30.09 "Hg19 mi
1:00 AM68 °FClear.1 mph84%30.11 "Hg25 mi
12:00 AM67 °FPassing clouds.2 mph84%30.12 "Hg25 mi
11:00 PM
Sat, Aug 29
68 °FPassing clouds.2 mph80%30.13 "Hg31 mi
10:00 PM67 °FClear.3 mph79%30.13 "Hg28 mi
9:00 PM68 °FOvercast.2 mph76%30.13 "Hg31 mi
8:00 PM70 °FPassing clouds.2 mph73%30.12 "Hg31 mi
7:00 PM74 °FOvercast.1 mph63%30.13 "Hg37 mi
6:00 PM74 °FScattered clouds.3 mph57%30.14 "Hg37 mi
5:00 PM75 °FPassing clouds.2 mph56%30.15 "Hg25 mi
4:00 PM73 °FPassing clouds.3 mph60%30.17 "Hg22 mi
3:00 PM72 °FPartly sunny.3 mph55%30.18 "Hg17 mi
2:00 PM71 °FPassing clouds.2 mph59%30.20 "Hg22 mi
1:00 PM70 °FSunny.3 mph59%30.22 "Hg14 mi
12:00 PM69 °FSunny.3 mph61%30.23 "Hg11 mi
11:00 AM68 °FSunny.3 mph68%30.23 "Hg9 mi
10:00 AM66 °FSunny.2 mph65%30.24 "Hg19 mi
Weather by CustomWeather, © 2015

See weather overviewHow to use our weather pages